Showing default

MERIDIAN 8, 44453

Orbit data source: Space-Track

MERIDIAN 8, 44453 is a payload satellite owned by VVKO VKS (CIS) that was launched on Tue, 30 Jul 2019 UTC via a SOYUZ-2-1A launch vehicle from the Plesetsk Missile And Space Complex (PKMTR). Payloads include a variety of satellites, spacecraft, and rockets equipped with specific instruments for various scientific and technological missions. These include communications satellites like Starlink; space stations such as the ISS; scientific satellites like the Hubble; Earth observation satellites from companies like Planet Labs, Umbra, and HawkEye 360; GPS; miniature CubeSats for education and research; and military/defense satellites.

Loading next visibility...
MERIDIAN 8 details
Identifier
44453, 2019-046A
Orbit
Molniya
Last TLE update23 hours ago
Origin
Flag of CISVVKO VKS (CIS)
ManufacturerResehetnev ISS
MissionPartially operational Defense Communications
Bus & MotorMERIDIAN, Unknown motor
Mass~2,000 kg wet, ~2,000 kg dry
Launch date (UTC)
2019-07-30 (5 years ago)
Launch vehicle
SOYUZ-2-1A
Launch site
Plesetsk Missile And Space Complex (PKMTR)
Object type
Payload
Rocket body
Debris
Shape & HBRBox + 2 Pan, 10 m
Radar Cross Section14.304 m², Large (>1 m²)

Expand to show TLE details & history

TLE from 23 hours ago
0 MERIDIAN 8
1 44453U 19046A   24347.41633589  .00000173  00000-0  00000-0 0  9990
2 44453  62.7464 117.7368 6845073 273.5484  16.9303  2.00593921 39274
Epoch: 2024-12-12T09:59Z
Definitive object data (Epoch: 2024-12-12T09:59:31.42Z)
Latitude0.00011°
Longitude-113.78244°
Altitude7,186.399 km
Speed6.616 km/s
True Right ascension07h 50m 46s
True Declination0° 00' 00"
Sunlit
Object was in daylight at TLE epoch
Visualization TLE readout
Latitude-14.33691°
Longitude73.65114°
Altitude5,941.792 km
Speed7.051 km/s
Apparent Right ascension20h 03m 51s
Apparent Declination-23° 01' 54"
Sunlit
Object is in daylight
Visualization observer readout
Local Sidereal Time07:23:06
Azimuth329.926° NNW
Elevation-71.043°
Doppler factor1
Orbital elements
Apogee altitude38,357.145 km
Perigee altitude2,000.369 km
Semi-major axis26,556.894 km
Eccentricity0.6845073
Inclination62.7464°
RAAN117.7368°
Arg. of periapsis273.5484°
True anomaly86.5558°
Mean anomaly16.9303°
Eccentric anomaly44.34255°
Mean motion0.50151 °/min
BSTARUnknown
Orbital period717.84 mins
Loading maneuver chart data...
Loading historical data...
Loading historical data...
Loading historical data...
Loading historical data...
Loading historical data...
Loading historical data...
Loading historical data...
Other satellites on launch #46 in the year 2019 (2019-07-30 UTC)

MERIDIAN 8 Visibility forecast

Observer location: undefined°, undefined

Span
Click to sort rows by Start time (UTC) header in descending order
Start Az.
Max El. time (UTC)
Max El. Az.
Max El.
End time (UTC)
End Az.
658 mins2024-12-13 09:49:25.933Z194.991° SSW2024-12-13 11:01:25.933Z79.329° E45°2024-12-13 20:47:25.933Z163.96° S
|